Theta_e
302 302 303 303 306 309 310 310 310 312 312 310 309 309 309 310 311 310 307 305 304 304 304 304 305 305 305 304 304 305 306 306 307 307 308 310 310 308 308 308 307 307 309 311 311 310 310 310 310 310 307 309 313 315 316 316 316 314 313 314 312 312 311 312 313 312 313 313 314 313 311 313 313 326 340 340 340 341 339 340 340 341 340 339 341 338 340 345
302 302 302 302 304 307 310 311 311 311 312 311 309 309 309 310 311 311 310 308 306 304 304 304 305 305 305 304 304 305 306 306 308 309 311 312 312 309 308 308 307 308 310 312 311 309 309 310 310 308 307 311 314 315 316 316 316 314 313 313 312 312 311 312 313 311 313 313 314 313 311 313 311 318 336 339 337 339 338 340 340 341 342 341 342 340 341 345
302 302 302 302 303 305 307 309 310 311 311 311 310 309 309 309 310 311 311 310 309 306 304 304 304 305 304 304 304 305 306 308 310 313 314 315 313 310 308 308 307 310 311 311 310 309 308 309 309 308 309 313 314 315 315 315 316 314 312 314 313 312 312 312 312 312 313 312 313 314 312 313 312 314 327 334 336 337 338 340 341 342 342 342 342 341 342 345
301 301 302 302 302 303 305 306 308 310 311 311 311 310 309 309 310 311 311 311 311 310 307 304 303 304 304 303 304 305 307 311 314 315 316 316 316 312 308 308 308 310 312 310 310 309 309 310 309 309 312 314 313 313 314 314 315 313 312 314 313 311 312 313 313 313 313 313 313 313 312 313 313 311 320 331 333 334 336 338 337 337 340 341 341 341 342 344
301 302 301 302 302 302 303 304 306 309 310 311 311 310 309 309 309 310 311 311 311 310 310 307 303 303 304 303 304 305 308 315 316 315 316 317 316 315 310 308 308 310 312 311 311 309 309 311 311 312 313 313 312 313 314 313 313 312 312 313 311 310 312 314 313 313 313 312 311 311 312 313 313 313 319 326 324 322 328 331 329 331 337 339 340 341 342 344
301 301 301 302 302 302 302 303 304 306 308 310 311 311 310 309 309 310 311 311 311 310 311 310 306 303 303 303 304 304 308 315 316 314 316 317 316 316 312 310 308 310 311 311 311 309 310 312 312 313 314 313 313 313 313 312 311 312 312 310 310 310 312 313 312 312 312 312 312 311 312 311 312 313 314 318 316 314 320 325 327 331 334 337 338 341 342 342
302 301 301 302 302 302 303 302 303 304 305 307 310 310 310 310 309 309 310 311 311 311 310 311 309 307 304 303 304 305 306 311 315 315 315 316 317 316 314 310 309 310 311 311 311 309 310 312 312 313 313 312 312 313 313 311 310 312 312 311 311 311 312 313 312 312 311 311 311 311 311 312 312 312 311 315 318 318 322 324 327 332 337 340 340 341 340 340
303 302 302 301 302 302 302 303 303 303 303 305 307 309 310 310 309 309 309 309 311 311 311 310 311 310 307 304 304 305 305 308 314 316 316 316 316 316 314 312 310 311 311 312 311 309 310 312 313 313 313 312 312 312 311 311 310 311 312 311 311 310 311 312 311 311 311 311 311 309 310 311 311 311 312 316 320 323 326 326 328 334 339 340 340 341 340 340
303 303 302 301 302 303 302 303 303 303 303 303 305 307 309 310 309 309 308 308 309 310 311 311 311 310 309 307 305 306 306 310 315 316 316 315 316 316 315 312 311 311 311 312 311 309 310 313 313 313 313 312 311 311 310 310 311 311 312 311 310 310 311 312 311 312 312 311 310 309 311 311 310 311 313 318 321 325 331 333 334 337 339 340 340 340 340 340
303 303 303 302 302 302 303 303 303 303 303 303 303 305 307 309 309 309 309 308 308 309 310 311 311 310 310 309 307 306 309 314 316 316 316 314 313 314 314 312 311 311 310 310 309 309 312 313 314 313 313 311 311 311 309 310 310 310 311 310 311 310 310 311 311 312 311 310 310 311 312 309 309 310 314 324 326 331 336 337 338 338 339 340 340 340 341 341
303 303 303 303 303 302 303 303 303 303 303 303 303 303 305 307 308 309 309 308 308 308 309 310 311 311 311 311 308 307 310 314 316 315 314 314 312 311 312 312 311 311 310 309 308 310 312 313 314 313 313 311 311 310 309 310 310 310 310 310 311 309 310 311 310 310 309 311 310 310 312 309 309 310 314 326 331 335 337 337 338 338 340 339 339 340 340 341
303 303 303 303 303 303 303 303 303 303 303 303 303 303 303 305 307 308 308 308 308 308 309 310 311 312 311 310 310 308 309 313 315 315 314 314 312 310 310 311 311 310 309 308 309 311 313 313 314 313 313 312 311 310 309 310 310 310 310 311 311 311 312 311 310 309 310 312 310 310 311 310 310 311 321 331 334 336 337 337 338 338 339 339 339 340 340 341
302 302 303 303 303 303 303 303 303 303 303 303 303 303 303 304 305 306 307 307 308 308 309 310 311 312 311 310 310 309 308 311 315 315 314 315 313 309 309 310 311 310 309 308 309 311 313 314 313 312 312 312 312 310 310 310 310 310 309 310 312 312 312 311 309 308 309 312 310 311 311 312 312 311 325 335 335 336 336 336 338 337 339 339 339 340 341 341
302 302 302 303 303 303 303 303 304 304 304 304 304 305 305 305 306 307 307 308 309 309 310 310 311 312 311 311 310 309 308 310 314 315 314 315 313 309 307 308 309 309 309 308 309 310 312 313 312 312 312 312 312 310 310 310 310 311 309 310 311 311 312 312 310 309 311 311 309 311 310 313 314 309 325 338 336 336 336 336 337 337 339 338 340 340 341 341
302 302 302 302 303 303 303 303 304 305 306 307 307 308 308 309 309 309 310 310 310 309 310 311 312 313 312 312 310 310 308 309 313 313 313 315 312 308 307 307 307 308 308 308 309 310 310 311 311 312 311 310 311 310 311 311 310 310 310 311 311 310 313 313 312 310 313 311 309 311 310 313 313 310 327 338 336 336 336 336 337 337 338 338 339 339 340 340
302 302 302 302 302 303 303 303 303 304 307 309 309 309 309 310 310 310 310 311 311 313 313 313 314 313 313 313 312 312 311 311 313 313 314 315 311 308 307 307 307 308 308 308 309 310 311 311 311 311 310 309 310 311 311 312 311 311 311 313 312 312 313 314 313 310 311 311 310 311 311 314 312 313 331 339 336 337 336 336 336 336 337 337 338 338 338 339
302 302 302 302 302 302 303 303 303 303 305 308 309 309 309 309 310 312 312 313 316 318 316 315 315 314 313 312 312 313 313 313 314 315 316 314 311 310 309 309 309 309 310 310 311 311 312 311 310 310 310 310 311 311 311 311 312 312 312 314 313 313 314 314 314 311 310 311 312 312 311 314 312 316 334 339 336 337 336 336 336 336 337 336 337 337 337 338
301 301 302 302 302 302 302 303 303 304 304 305 307 308 308 310 313 314 314 316 318 317 315 314 312 312 311 310 311 313 313 313 313 315 316 314 311 311 311 311 311 311 311 310 311 311 311 309 309 311 311 311 311 311 311 311 312 312 313 314 313 314 313 313 314 313 312 312 312 311 311 313 313 320 337 340 336 338 336 337 337 337 337 336 337 336 336 337
301 301 301 302 301 302 302 303 303 303 304 304 305 306 308 312 315 314 315 317 317 315 315 314 312 311 311 310 311 312 312 313 313 314 316 314 311 311 311 311 312 311 310 310 310 309 310 310 310 311 311 312 313 312 311 312 312 312 312 313 313 314 313 314 313 312 311 311 311 311 312 312 314 325 338 340 338 339 337 338 338 338 337 337 337 336 336 336
301 301 301 301 302 302 302 302 302 303 303 304 304 305 310 313 314 315 315 316 315 314 315 315 313 314 313 313 312 312 313 313 313 315 315 315 312 311 311 310 311 311 310 312 312 309 310 311 311 312 313 316 318 318 316 314 314 313 313 312 313 313 314 314 313 311 311 313 312 311 312 312 316 327 336 340 340 338 338 338 338 338 338 337 337 336 336 335
301 301 302 301 301 301 302 302 302 303 303 304 304 305 310 313 315 315 314 314 314 314 315 314 315 314 315 314 314 313 313 313 314 315 315 315 312 311 311 311 311 310 310 311 311 310 310 311 313 316 317 320 322 319 318 317 315 314 313 314 313 313 314 314 313 312 312 315 314 311 312 315 320 328 334 338 341 339 338 338 339 339 338 337 337 336 336 335
300 301 301 301 301 302 301 302 302 303 303 304 304 306 311 314 314 314 313 314 314 314 314 314 314 314 314 314 314 314 314 314 314 314 315 314 313 311 310 310 311 312 311 310 311 312 312 312 316 318 317 318 319 316 317 318 317 315 313 314 314 313 313 314 315 315 313 315 316 312 313 317 318 323 329 332 335 336 338 338 338 339 338 337 337 336 336 335
300 301 301 301 302 301 302 302 302 302 303 304 304 308 314 315 313 313 314 314 314 314 314 313 314 314 314 314 314 314 314 314 313 314 315 314 313 311 310 310 311 312 311 311 312 312 312 313 315 315 314 317 318 316 316 317 316 315 314 313 314 313 313 315 317 317 315 316 318 316 315 317 317 322 326 324 326 333 337 338 338 338 338 338 337 336 336 335
300 300 301 301 301 301 302 302 302 303 305 306 306 311 316 316 314 314 314 314 314 314 313 314 314 314 314 314 313 313 313 314 313 314 314 313 313 311 310 310 310 311 310 311 312 311 311 312 311 312 314 316 318 317 316 315 314 316 316 314 313 315 315 315 317 319 318 317 318 317 316 316 318 325 328 323 324 332 335 337 339 337 338 338 337 337 336 336
300 300 300 301 301 302 301 302 303 305 306 305 306 313 317 315 315 314 314 314 315 314 314 314 314 314 313 313 313 313 313 313 314 315 315 313 313 311 310 310 310 311 310 310 310 310 311 310 310 314 315 314 317 317 316 315 314 315 317 316 316 317 318 318 319 319 317 316 317 316 315 316 316 321 323 320 322 330 333 335 338 337 337 337 337 337 336 336
299 299 300 300 300 301 301 302 304 304 304 305 308 314 316 315 315 314 313 315 316 316 315 314 314 314 313 313 313 313 313 313 313 315 315 314 313 312 311 309 309 311 310 310 310 311 312 309 310 315 316 314 314 314 316 316 314 314 318 319 316 317 320 321 320 317 315 315 316 316 315 316 316 316 317 315 319 326 329 332 334 335 336 336 335 336 336 336
299 299 300 300 300 301 301 301 302 302 302 306 311 315 315 315 315 313 313 314 315 316 315 313 313 313 312 313 313 313 315 315 313 315 315 314 313 312 311 310 309 309 309 310 312 312 313 312 312 316 316 314 312 314 317 315 314 315 319 317 314 315 320 322 321 317 316 316 316 317 316 315 316 316 315 315 317 323 326 330 332 333 334 334 334 334 335 335
299 299 299 300 300 300 301 301 301 302 303 305 310 315 316 315 313 314 314 311 312 315 314 313 313 311 312 313 313 314 314 315 315 315 315 315 313 312 312 311 310 311 310 311 312 313 315 316 316 317 315 312 313 316 316 315 314 316 315 314 313 316 320 322 319 317 317 316 315 317 317 315 316 317 317 316 318 321 323 325 328 331 333 333 333 333 334 334
299 299 299 300 300 300 300 301 301 302 304 306 310 315 317 314 312 314 313 310 311 314 313 313 313 311 312 313 314 314 313 313 313 313 313 313 312 312 312 311 310 311 310 310 313 314 314 314 315 316 315 314 315 314 312 315 317 314 312 313 313 315 318 319 317 316 317 315 314 317 317 315 315 317 318 317 318 319 319 319 320 323 327 329 331 332 332 333
299 299 299 299 300 300 300 301 301 302 303 307 313 317 315 314 315 312 308 310 314 313 312 313 313 311 313 314 314 314 313 313 312 311 312 312 312 311 311 310 310 310 313 314 314 313 312 311 312 314 313 313 313 309 309 313 314 312 313 314 314 315 317 318 316 317 316 315 315 316 316 316 315 316 317 318 318 317 317 318 318 317 318 321 326 329 331 332
300 299 299 300 300 300 301 301 302 303 302 306 314 316 313 313 315 311 310 312 311 311 313 312 312 311 312 313 314 313 313 313 312 311 312 311 311 311 310 311 311 312 314 315 314 314 313 311 312 313 312 310 311 309 308 310 310 312 315 315 315 316 317 317 316 316 315 315 315 314 314 316 315 316 317 318 317 316 317 319 319 319 319 318 319 323 327 329
300 299 299 300 300 300 300 301 301 303 304 307 312 314 312 312 312 311 314 313 309 312 314 312 312 311 310 311 312 312 313 314 312 311 312 311 311 312 311 313 314 312 313 313 315 315 315 314 313 312 312 311 312 312 309 309 311 313 315 315 314 315 315 315 316 315 315 315 314 313 314 316 315 316 317 318 318 318 320 321 321 322 322 320 319 321 324 326
300 299 300 301 302 301 301 301 300 302 305 306 308 312 313 312 312 313 313 311 309 312 313 311 312 310 309 311 312 311 312 313 313 311 311 311 312 312 311 312 314 315 315 314 314 314 315 316 314 313 313 312 313 314 312 312 312 312 314 315 315 314 315 315 314 314 314 316 314 312 315 316 316 316 316 317 318 319 322 324 324 323 322 323 323 324 325 326
299 300 301 303 304 303 302 301 300 302 303 304 307 312 312 311 313 314 312 310 311 312 311 310 309 309 309 311 311 311 312 313 312 311 311 311 312 313 312 310 311 316 318 314 312 314 315 315 315 315 314 312 312 314 314 313 312 311 312 313 314 315 315 314 314 315 315 316 315 313 315 317 317 317 315 316 319 322 324 324 324 324 324 324 325 325 326 326
300 301 303 305 306 307 305 302 300 301 301 303 310 313 312 311 312 312 312 313 313 311 309 308 308 310 312 312 312 311 311 313 312 311 312 311 313 315 314 311 311 314 317 314 313 313 312 314 315 313 310 310 311 311 311 312 312 309 309 311 313 315 316 313 312 314 315 316 316 314 314 315 316 315 314 317 322 324 325 325 324 325 325 325 325 325 326 326
300 302 304 306 307 309 309 305 302 301 300 305 311 313 312 312 310 309 312 312 310 309 308 307 308 310 312 314 314 312 312 314 312 311 312 311 312 313 313 312 311 313 314 315 316 313 311 315 315 311 309 309 309 309 309 310 312 310 310 311 311 311 316 316 311 311 313 314 315 313 314 316 316 316 315 319 325 324 324 325 325 325 325 325 326 325 326 327
301 303 305 306 308 309 310 308 304 300 301 305 311 313 312 311 308 308 311 310 308 309 308 308 310 310 311 314 314 313 313 313 312 312 312 312 312 312 312 313 311 311 313 315 317 315 313 315 313 311 311 308 307 309 309 308 310 311 311 312 310 309 314 316 313 312 312 314 313 311 314 317 317 317 317 320 325 325 324 324 324 325 326 326 325 325 326 326
302 305 306 307 309 309 309 311 306 300 302 305 311 314 311 309 307 308 310 309 308 309 309 309 310 310 310 312 313 313 312 314 316 314 313 313 313 312 313 313 311 310 310 311 315 315 313 314 312 310 311 309 308 310 310 308 308 310 311 310 310 312 314 313 313 314 313 313 313 311 312 314 315 317 317 319 325 327 324 323 324 325 325 326 325 324 324 324
304 307 307 307 309 308 309 311 305 301 304 306 309 312 309 307 307 308 311 310 308 309 310 309 309 309 310 310 311 311 311 315 318 316 315 314 314 313 312 312 312 309 308 311 314 315 314 315 314 310 308 309 310 311 312 311 308 308 310 309 310 313 314 313 313 315 314 312 312 312 312 314 315 317 318 319 323 326 326 323 324 325 324 325 324 323 322 323
307 307 307 307 308 307 307 307 303 303 307 307 307 309 307 308 310 309 311 311 309 310 311 310 308 310 313 310 308 310 311 314 315 315 318 316 314 314 311 310 311 309 308 309 312 315 315 314 315 312 309 309 310 310 311 312 311 310 311 312 311 310 310 311 312 311 312 312 312 312 313 314 315 315 317 318 321 324 325 324 324 324 324 323 322 322 322 322
308 308 307 307 307 305 305 305 304 306 309 307 306 308 308 310 311 311 311 310 310 309 310 311 309 310 312 310 309 309 310 311 311 312 315 313 314 317 311 308 309 308 309 311 312 316 315 313 316 315 311 310 310 307 306 307 308 310 312 313 312 311 311 312 312 310 311 312 312 312 313 314 314 312 315 317 317 319 323 324 324 324 323 322 321 321 322 322
308 307 307 306 307 307 307 308 307 308 311 309 307 308 310 311 311 310 309 308 309 308 307 310 310 310 311 310 309 309 310 310 309 309 311 310 312 315 312 310 310 307 309 312 312 315 316 316 317 314 309 309 308 306 305 305 306 308 311 310 310 313 315 314 313 313 312 311 310 311 312 313 313 311 313 315 314 317 321 324 325 324 323 322 321 322 323 324
306 306 305 306 309 310 310 311 309 310 312 311 308 308 309 309 308 308 307 307 308 308 307 309 308 309 309 308 308 308 309 310 309 308 310 309 309 311 309 309 312 312 311 312 313 316 319 319 316 313 311 309 308 307 306 306 307 309 310 308 308 311 313 314 314 315 314 311 311 311 311 313 313 312 314 316 316 318 322 323 324 323 322 322 322 323 324 325
306 306 305 306 308 310 309 308 308 309 310 310 309 309 307 306 306 307 307 307 307 307 309 309 307 307 307 307 309 309 308 311 310 308 310 311 309 309 307 307 314 319 316 314 316 318 319 318 314 312 312 311 309 309 308 308 309 310 309 308 307 309 312 314 314 314 314 313 313 312 313 313 314 314 317 319 319 321 322 322 322 322 321 321 322 323 324 325
306 307 306 305 306 308 306 304 305 306 308 310 310 308 307 307 306 306 306 306 305 305 307 308 306 306 307 308 309 309 307 309 312 310 310 311 310 309 308 307 311 318 318 314 314 315 316 316 314 311 312 311 311 311 311 310 310 309 309 309 308 309 313 314 313 313 313 312 312 313 313 314 314 315 317 318 319 321 321 321 321 321 321 321 322 323 323 323
306 307 306 305 306 306 305 304 304 304 306 308 307 305 306 308 306 306 306 306 305 304 304 304 303 306 308 309 311 311 307 308 310 310 309 310 311 309 308 307 307 314 318 312 309 314 316 313 312 314 313 311 312 311 309 310 311 310 309 310 310 310 313 314 312 312 313 311 312 314 314 315 316 314 313 313 315 318 320 321 321 320 320 321 322 323 322 322
305 305 304 304 305 306 305 305 305 305 305 305 304 304 304 305 306 306 306 306 305 304 304 303 302 306 309 311 314 312 308 307 308 308 307 307 308 308 307 307 306 309 313 310 308 316 321 313 311 314 312 308 309 309 307 309 312 312 310 310 312 314 315 315 312 312 313 311 312 315 316 316 315 312 310 310 311 313 317 318 318 319 319 319 320 321 321 321
303 303 302 303 303 304 305 305 305 305 305 304 303 303 304 304 304 305 305 305 305 304 305 304 302 302 303 306 312 311 308 309 308 306 307 306 306 309 309 309 307 306 309 310 309 316 321 315 312 313 311 307 306 308 310 311 311 312 314 314 315 315 316 317 315 312 313 313 312 315 316 316 313 309 308 308 308 309 311 312 314 317 318 318 319 319 320 320
302 301 301 301 302 301 303 304 304 305 306 305 303 303 304 303 303 302 302 305 307 304 304 305 302 301 301 303 308 308 306 309 307 304 305 306 307 309 309 311 309 305 308 312 311 313 316 314 312 312 311 309 308 308 310 312 311 312 313 312 314 315 315 318 318 311 310 313 312 311 313 312 308 306 306 306 307 308 309 310 311 313 316 317 317 317 319 319
302 301 301 300 300 300 301 302 304 306 305 305 305 304 303 303 303 302 300 304 308 305 303 304 303 301 301 302 304 304 303 305 306 304 304 306 307 307 306 308 307 305 307 311 311 312 315 313 312 314 312 309 309 308 308 310 312 313 312 309 310 312 311 313 314 309 310 312 308 308 311 310 305 305 305 305 306 307 309 310 310 310 311 314 315 316 317 318
301 301 301 301 300 299 300 300 303 305 304 303 304 303 303 303 302 303 301 301 303 302 301 303 303 303 302 302 302 302 300 301 302 302 302 303 304 304 305 305 305 305 307 309 310 314 316 311 309 312 312 309 309 309 308 310 311 311 311 310 309 310 309 309 309 307 309 311 309 309 312 309 305 305 305 305 306 306 307 308 309 309 309 311 312 313 314 315
300 301 300 300 300 298 298 299 301 303 302 302 303 303 303 302 302 303 304 302 301 301 300 301 303 304 303 303 302 301 300 300 301 301 301 301 302 302 303 303 303 304 306 307 309 311 313 310 308 310 311 308 307 308 309 310 310 309 308 307 306 307 307 306 305 303 304 306 308 310 309 306 304 305 304 303 303 303 303 304 306 308 308 309 310 310 310 311
Wind_Speed
11 11 11 12 11 10 10 10 9 8 8 9 10 11 12 13 13 12 11 11 11 11 11 11 11 10 9 9 8 8 8 9 9 11 10 5 3 6 7 8 10 13 14 13 13 13 13 13 12 11 11 12 11 11 10 6 6 5 2 2 3 2 3 4 5 3 1 2 2 5 9 5 4 5 8 9 11 11 6 3 2 3 3 7 9 6 21 23
11 11 11 12 11 10 10 10 9 8 8 9 9 10 11 12 13 12 11 11 11 11 11 11 10 10 9 8 7 7 8 8 8 8 4 2 3 3 4 8 10 13 14 13 12 11 12 13 13 12 13 12 8 10 9 6 6 3 1 2 3 3 2 3 4 2 2 3 6 6 7 4 5 2 8 5 4 7 4 3 1 1 2 8 10 12 23 24
12 11 11 11 10 10 10 11 10 9 9 9 9 10 11 11 12 12 12 12 12 13 12 10 10 9 9 8 7 7 7 8 7 2 2 3 4 3 2 6 10 14 14 12 11 9 9 11 12 13 14 10 7 9 8 6 6 3 1 3 3 3 2 4 6 7 6 7 8 5 6 6 6 1 7 3 3 4 3 4 4 5 8 11 13 18 24 24
13 12 11 11 11 10 10 10 11 10 9 9 10 10 10 11 12 12 12 12 12 13 13 12 10 9 9 7 6 6 7 7 2 5 3 2 4 4 1 5 9 15 15 13 11 8 8 9 11 14 12 6 5 8 6 6 6 3 3 3 1 3 3 5 9 11 10 9 8 5 6 7 5 3 6 5 3 3 6 10 9 9 15 16 18 24 26 26
15 13 12 11 11 10 10 11 11 11 10 10 10 10 10 10 11 11 12 12 13 13 14 14 11 10 9 7 6 5 5 3 6 7 3 1 2 3 2 5 9 14 15 13 11 9 10 11 12 13 9 4 5 6 5 7 6 3 4 3 4 5 3 6 9 10 9 8 7 5 5 5 4 1 6 7 5 3 6 14 13 10 15 18 21 27 27 28
17 15 13 12 11 11 11 11 11 11 11 11 10 10 10 10 10 11 11 12 13 13 14 14 13 11 9 7 6 4 3 0 6 4 2 2 1 1 1 5 9 12 13 12 12 11 12 14 12 10 6 3 5 5 5 9 7 4 3 2 5 7 5 7 8 8 8 7 6 5 4 4 4 3 3 7 9 7 6 11 13 13 14 17 21 27 30 30
20 17 14 12 12 11 11 10 10 11 11 11 11 11 11 10 10 10 11 12 13 14 14 14 13 13 11 8 7 5 6 3 3 3 3 4 3 2 2 5 8 10 12 12 11 12 14 14 11 9 6 2 4 4 5 8 7 5 2 1 5 8 9 10 10 11 11 11 10 8 6 7 5 4 4 6 9 10 9 7 10 14 15 17 20 26 30 29
21 19 16 13 12 11 11 11 10 10 11 11 11 11 11 11 10 10 11 12 13 14 14 13 13 13 12 9 8 7 7 5 3 3 4 4 4 3 4 6 9 10 11 11 10 12 14 13 12 11 5 2 4 5 6 6 4 5 4 2 2 6 10 12 12 14 15 16 15 9 8 10 8 4 4 7 9 9 8 4 10 15 16 19 20 25 28 28
20 20 18 15 13 12 12 11 11 10 10 11 11 11 11 11 11 10 11 12 13 14 14 14 13 13 12 10 9 7 5 4 4 4 4 3 3 5 5 6 8 11 11 10 10 12 13 12 12 10 4 3 5 5 7 5 3 6 7 4 3 5 10 11 12 14 13 13 10 5 7 9 5 5 5 9 11 8 4 5 12 15 17 20 20 23 26 26
19 20 20 18 14 13 12 11 10 10 10 10 11 11 11 12 11 11 11 12 13 14 15 14 13 13 12 11 7 3 2 4 3 5 4 2 1 4 6 6 7 10 11 10 12 14 14 11 9 8 4 4 5 3 5 5 2 6 8 5 7 8 10 10 10 11 8 7 8 7 5 2 4 7 4 8 10 6 6 9 12 15 17 19 18 19 21 19
19 19 19 19 17 14 13 12 11 10 10 10 10 11 11 12 12 12 12 13 14 14 15 14 14 13 13 11 6 3 3 4 4 5 4 2 1 2 5 6 6 8 10 12 15 16 13 9 6 5 4 3 4 3 4 5 2 3 5 4 6 7 11 10 10 11 6 6 10 10 3 3 5 5 3 7 9 7 10 11 12 15 15 17 17 17 18 15
19 19 18 19 19 16 14 12 11 10 10 9 10 10 11 12 12 12 13 13 14 15 16 15 14 13 14 15 11 5 5 6 6 5 4 3 1 2 4 5 5 6 8 12 16 15 11 9 5 3 2 3 3 3 3 4 2 1 2 3 3 3 6 8 5 5 4 4 7 9 3 1 4 3 3 7 10 10 10 11 12 14 14 15 16 16 17 18
19 18 18 18 18 18 15 13 12 11 10 9 9 9 10 10 11 12 13 14 15 15 17 15 15 15 14 13 9 4 7 9 8 7 4 3 2 3 7 8 6 6 7 10 14 14 11 8 4 1 1 2 1 1 1 1 2 2 2 1 2 2 3 4 1 1 3 3 6 10 4 4 6 4 6 10 13 13 12 12 13 15 15 16 17 17 18 20
19 18 18 18 17 18 16 14 12 10 9 8 8 8 8 9 10 11 12 14 15 16 16 15 15 14 12 11 9 6 10 10 11 9 5 4 3 4 8 10 10 8 8 9 10 11 9 5 3 3 2 2 2 1 0 1 1 1 2 1 1 2 3 2 2 3 3 1 7 9 5 4 4 3 9 12 14 14 13 13 14 16 16 16 18 19 20 21
19 18 18 17 17 17 16 15 12 10 9 8 8 8 9 10 11 12 13 15 16 16 15 15 14 11 12 13 9 5 9 10 11 8 5 5 4 4 8 11 12 11 12 11 9 8 7 4 2 2 2 2 3 1 0 1 2 1 1 2 0 2 2 1 1 4 3 1 5 8 4 4 4 1 10 14 14 13 12 12 14 15 16 17 17 18 20 21
19 18 18 17 17 16 16 15 13 11 9 9 9 10 11 12 13 14 15 15 15 14 12 10 9 7 8 7 2 2 3 5 8 7 6 6 4 5 9 12 13 14 13 11 8 5 5 3 1 1 1 1 2 1 1 1 1 1 1 2 1 2 2 1 1 2 2 1 3 7 3 3 1 1 9 14 14 13 11 11 13 13 14 16 17 16 18 20
19 18 18 17 17 16 15 14 14 12 10 10 11 11 13 14 14 13 13 12 11 9 7 7 7 7 7 4 1 3 4 3 2 5 7 8 7 7 10 13 13 13 11 8 6 4 4 3 1 1 1 1 1 1 2 2 2 1 1 1 1 2 2 1 1 1 0 1 4 7 6 4 1 2 10 14 14 13 11 12 12 12 13 15 17 16 17 18
19 19 18 17 17 16 15 14 14 12 12 12 11 13 14 13 12 12 11 9 5 3 4 5 4 4 5 5 2 4 3 5 0 2 6 11 10 8 9 9 10 11 9 6 5 5 5 2 1 1 1 1 1 2 3 2 2 3 2 1 1 2 3 3 2 1 1 2 4 6 8 8 1 2 11 14 14 13 10 11 12 12 13 14 15 16 17 17
20 19 18 17 16 16 16 15 14 13 13 12 11 12 12 10 11 10 7 5 3 3 5 5 5 5 7 9 8 5 6 6 2 1 7 12 13 11 7 7 9 10 7 4 4 4 4 2 1 2 2 2 3 4 3 1 3 3 2 2 1 2 3 4 3 0 1 2 4 5 7 7 3 4 10 13 13 13 10 10 11 12 14 14 15 16 16 17
20 19 18 18 16 16 16 15 14 13 13 12 11 10 8 7 7 4 6 11 13 11 13 14 15 16 15 14 12 10 8 5 4 3 8 13 15 13 8 6 7 6 4 2 3 3 3 2 2 4 4 4 4 3 3 3 3 3 2 2 2 2 3 3 1 1 1 3 2 3 4 2 2 4 8 12 12 11 10 10 11 12 13 14 14 15 16 17
21 20 19 18 17 16 16 15 14 14 14 12 10 8 5 4 3 4 10 16 17 15 18 20 20 21 19 14 11 10 7 4 4 5 9 13 15 13 7 5 4 3 1 0 2 2 2 3 4 5 4 3 3 4 4 4 2 1 2 2 2 3 3 2 1 2 1 3 0 1 3 2 1 2 5 8 9 10 11 10 10 11 11 12 12 13 14 16
21 20 19 18 17 16 16 16 14 13 14 12 9 5 2 3 5 9 11 12 18 20 18 18 20 23 22 18 18 16 10 5 4 6 10 15 15 11 7 4 2 2 0 0 2 1 1 5 6 4 4 4 4 4 3 3 2 2 1 2 1 2 3 2 2 3 2 1 1 2 3 3 3 1 1 2 2 5 8 10 9 10 11 12 12 13 13 15
22 21 20 19 17 16 16 15 14 13 13 10 6 2 1 4 8 12 9 8 16 20 15 15 18 22 21 19 18 17 12 7 6 8 13 18 15 11 9 5 2 2 2 3 4 2 2 4 3 4 7 6 4 3 4 3 1 1 2 2 1 0 1 1 1 3 3 2 2 3 4 3 2 3 2 1 2 2 4 8 9 10 11 12 13 14 15 16
22 21 21 19 18 16 15 15 13 11 9 6 4 2 2 6 10 12 7 6 9 11 10 10 11 15 16 14 12 14 14 10 8 9 15 19 15 10 8 5 3 3 3 4 4 5 4 1 3 6 6 5 4 3 4 3 2 2 3 4 2 1 2 1 1 3 1 2 3 2 3 2 2 3 4 1 1 2 4 8 11 12 12 12 12 14 16 17
22 22 21 20 18 16 15 15 11 6 6 6 4 3 2 6 10 10 4 3 5 5 5 4 5 7 7 8 9 13 13 10 11 12 17 21 18 10 5 5 4 3 3 4 4 4 4 2 5 5 3 4 4 3 5 5 2 2 5 8 5 3 3 2 1 1 2 2 4 2 2 3 2 2 3 1 2 4 4 7 12 14 15 14 14 16 17 17
21 21 21 20 19 17 14 11 7 6 7 5 4 4 4 6 9 7 2 1 3 3 2 1 2 2 5 8 11 12 7 7 12 14 17 21 19 11 5 4 2 1 4 4 3 2 1 3 4 3 3 4 3 3 5 6 3 1 3 7 6 3 2 2 1 0 1 1 2 2 1 2 2 3 2 1 3 5 4 6 10 13 16 16 16 18 18 17
20 21 21 20 20 18 15 10 8 10 8 3 4 4 5 7 6 4 2 2 2 2 0 1 1 3 3 6 15 12 2 5 10 14 19 20 18 14 7 4 1 1 3 3 2 2 3 4 2 2 3 4 4 3 5 8 5 2 2 5 7 5 4 3 1 1 0 0 1 2 2 2 2 3 1 2 4 5 5 7 8 11 14 16 17 19 19 18
20 20 20 20 19 18 17 14 12 11 7 5 7 6 6 6 4 1 1 2 1 0 1 2 1 4 2 5 18 11 1 7 8 10 20 20 16 11 6 6 6 4 3 4 4 1 3 4 4 4 3 3 5 3 7 11 4 0 2 5 5 4 3 2 2 2 1 1 3 2 3 2 2 1 0 1 2 4 4 6 7 9 12 15 17 18 19 17
21 20 20 20 19 18 17 16 14 9 5 6 8 7 6 4 2 1 2 0 1 1 1 2 3 4 4 7 15 10 1 3 2 7 17 18 15 8 3 7 6 4 2 2 4 1 1 3 4 5 3 3 3 1 5 7 1 2 5 6 6 4 4 2 1 3 1 2 3 1 4 2 3 1 1 1 0 0 1 2 4 5 9 13 16 18 19 17
22 21 21 20 19 17 17 16 12 7 6 8 9 7 4 2 2 2 1 2 2 1 1 2 2 2 5 6 6 8 4 1 3 9 12 12 12 5 3 6 5 4 2 2 2 1 1 1 2 3 2 1 4 4 3 1 2 6 5 5 6 4 2 2 2 2 1 2 1 2 4 2 3 2 1 1 0 2 4 4 3 4 7 9 13 17 18 17
22 22 21 21 19 17 17 14 7 4 7 9 10 8 3 2 2 1 3 2 2 1 1 1 1 1 4 4 2 3 3 1 3 8 7 6 7 3 4 5 3 2 1 1 2 2 2 1 1 2 2 3 5 5 4 3 2 3 2 3 4 2 1 1 1 0 3 2 1 2 3 3 3 2 1 2 2 3 5 6 7 8 9 11 12 11 13 16
23 22 20 19 18 17 16 13 7 5 8 9 9 8 4 2 1 2 2 2 1 0 1 0 1 1 1 1 2 3 2 2 3 4 4 4 5 4 2 3 3 2 1 3 2 1 2 3 2 1 2 3 4 4 4 2 0 1 2 4 4 2 1 2 1 1 3 1 1 2 2 2 2 1 2 5 5 5 5 6 9 11 12 13 12 7 8 12
23 22 19 16 16 16 14 11 9 10 10 9 8 6 3 1 3 4 3 2 0 1 1 1 2 2 1 1 1 3 2 2 4 3 2 2 4 5 1 1 3 3 1 2 2 1 2 2 1 1 1 3 4 4 4 3 3 4 4 3 4 3 2 2 1 1 2 1 1 1 1 1 1 1 3 6 7 7 7 7 8 8 7 7 6 4 3 3
23 21 18 13 11 11 11 11 11 12 12 11 7 4 3 3 3 2 3 3 1 2 1 0 3 2 2 1 2 2 2 2 3 4 3 2 3 4 2 1 2 1 2 2 2 2 3 2 2 2 1 3 5 4 3 4 4 2 1 1 3 3 2 3 3 2 3 1 2 1 2 2 2 1 2 5 6 6 6 6 5 4 6 8 10 10 10 9
23 19 15 8 5 5 7 11 13 13 14 12 6 2 4 5 2 1 2 2 1 2 2 1 1 1 0 1 2 0 2 1 1 3 3 3 3 3 3 4 4 2 3 3 2 1 1 2 2 1 1 2 3 2 3 4 4 1 0 1 1 2 2 1 0 1 1 1 2 2 2 1 1 1 1 2 2 1 3 3 4 6 9 11 13 13 13 13
22 16 9 5 4 5 6 10 14 17 18 12 4 2 4 3 2 2 2 1 1 0 2 2 1 0 1 1 1 1 1 1 1 1 2 2 2 3 2 3 5 5 4 3 2 1 1 2 1 1 1 1 1 2 2 1 3 3 2 3 1 0 3 3 2 2 1 2 2 1 1 0 1 2 3 3 3 3 3 3 6 7 9 12 13 15 16 16
20 14 7 5 7 9 8 10 13 19 19 11 4 4 3 2 3 3 0 1 2 1 1 1 1 1 1 1 1 1 1 2 1 1 2 1 1 3 2 2 5 8 6 3 2 2 2 1 1 1 2 2 2 3 5 4 1 3 3 5 4 1 2 2 2 2 0 3 2 1 1 1 2 2 2 2 2 2 3 3 5 5 7 11 13 17 19 18
18 10 6 8 13 12 8 11 15 20 17 7 3 3 2 2 3 3 0 1 1 1 1 1 1 1 0 1 1 1 1 2 1 0 1 0 1 1 1 1 3 4 4 3 2 1 2 2 0 1 1 2 3 2 5 5 5 2 3 4 3 2 2 2 1 2 3 3 1 1 1 2 4 3 2 4 4 3 3 3 4 5 6 8 10 15 19 18
14 6 5 14 20 15 7 11 18 20 12 3 3 3 2 3 2 2 2 2 2 1 1 1 1 1 1 1 1 1 1 2 2 2 2 0 1 1 2 1 0 2 3 3 2 1 0 2 1 0 1 1 2 0 3 3 5 4 4 3 1 1 1 2 1 1 3 3 1 2 1 3 4 3 4 7 6 5 6 4 5 6 6 5 7 13 15 14
10 2 6 19 21 11 1 13 18 15 6 1 3 1 1 2 2 4 5 2 2 1 0 1 1 1 1 1 1 1 1 0 2 2 2 2 1 1 3 3 3 3 3 1 2 2 1 1 2 0 1 2 1 1 2 2 3 2 3 3 1 1 1 1 2 1 1 3 2 2 3 2 1 1 3 4 4 5 6 5 5 6 7 7 8 10 9 9
9 1 7 20 12 5 9 12 9 4 2 1 1 1 1 1 1 2 4 3 3 2 0 2 2 1 1 1 1 0 2 1 1 1 2 2 1 1 2 3 3 3 2 2 2 2 1 1 2 1 0 1 1 3 2 3 1 1 2 2 3 3 2 3 3 1 0 1 2 2 2 1 2 1 1 1 1 3 5 5 5 6 7 7 7 7 8 10
9 3 11 17 2 7 6 5 1 2 2 1 1 2 1 1 0 0 1 1 1 0 1 1 1 2 2 1 2 1 1 1 0 0 1 1 1 2 1 4 4 3 1 1 0 1 1 2 2 1 1 0 2 3 1 1 0 2 2 1 2 2 2 3 3 3 2 1 1 1 1 1 3 3 2 3 4 2 5 7 6 5 6 6 6 8 11 13
9 6 13 13 2 2 6 1 1 2 1 2 1 1 1 1 0 1 2 3 1 1 1 0 1 1 1 1 1 1 1 1 0 0 1 2 1 1 4 3 1 1 1 1 1 0 1 2 2 1 1 1 2 1 0 0 1 2 4 3 0 0 1 1 1 2 4 3 2 2 2 2 3 4 3 2 2 2 5 5 5 5 5 6 8 10 13 14
7 7 17 18 4 2 3 1 2 2 2 4 2 2 3 4 3 2 2 3 2 1 0 0 1 1 0 1 1 1 1 1 0 1 1 2 1 1 6 4 4 4 1 1 1 1 0 1 1 2 2 1 1 2 2 1 1 1 2 1 0 3 4 2 2 1 3 3 2 3 3 2 3 4 4 3 4 6 5 4 4 5 5 6 8 10 13 14
5 4 11 20 17 12 8 3 2 1 2 4 3 4 4 3 5 5 5 4 3 2 1 0 1 1 1 2 2 2 3 1 1 1 1 1 0 1 8 9 3 4 4 5 5 3 2 1 1 3 5 4 3 3 2 1 1 1 1 1 2 3 2 2 2 2 3 3 2 3 2 2 2 4 6 6 5 5 5 5 5 4 4 6 8 10 12 13
5 3 5 11 19 20 15 11 7 2 2 2 2 5 5 2 2 5 6 5 4 4 3 3 3 1 1 2 2 2 4 2 2 2 2 2 1 2 7 8 6 6 6 10 9 5 3 3 1 1 3 3 3 2 1 1 2 2 1 2 3 2 2 2 2 1 2 3 2 2 1 3 3 3 6 5 4 3 4 4 4 3 3 6 8 10 10 10
4 3 3 4 8 10 11 15 13 6 2 2 2 4 6 4 3 4 5 5 5 5 3 4 6 3 1 1 2 2 3 3 4 4 2 3 2 3 6 4 7 12 7 6 6 4 4 3 2 3 4 2 2 3 1 2 1 3 2 2 2 2 2 2 1 1 3 3 2 2 3 4 3 2 4 4 4 3 3 3 3 3 3 5 6 7 7 7
5 3 2 2 2 3 5 9 11 8 7 6 3 4 7 8 7 5 5 3 5 7 3 3 9 7 2 1 2 2 3 2 5 4 3 4 2 3 5 3 8 16 9 3 4 3 5 2 1 2 4 5 4 3 3 3 2 2 3 3 3 2 2 1 1 1 3 1 2 2 5 3 2 2 4 5 4 3 2 4 4 4 4 4 5 5 5 6
6 5 5 5 4 1 3 6 9 8 9 7 4 5 8 10 9 6 4 3 3 8 6 3 6 9 6 3 2 2 3 2 4 4 3 4 3 3 4 2 6 14 10 3 3 3 4 1 1 2 3 5 6 2 3 5 3 2 3 3 2 2 2 1 2 1 1 1 2 2 4 3 3 4 6 6 4 1 2 6 7 6 4 5 5 5 5 5
6 5 5 5 7 6 7 7 6 4 6 7 5 5 6 9 9 6 6 5 3 5 7 4 4 6 6 8 6 5 4 3 2 3 2 2 3 3 3 1 3 9 8 3 2 2 2 2 2 2 3 3 5 4 2 3 4 3 3 2 1 1 2 2 2 2 1 1 2 2 4 4 4 4 5 5 3 3 6 8 8 7 6 7 7 7 6 5
9 8 6 3 3 7 8 6 4 2 4 6 5 5 5 8 9 6 3 7 6 4 5 5 4 3 3 8 9 6 3 3 3 3 2 2 2 2 1 1 2 5 6 4 2 3 2 3 2 2 3 1 2 3 2 4 4 2 2 2 1 1 1 2 3 2 0 1 3 3 2 2 3 3 6 8 9 10 10 10 10 10 9 10 11 9 8 7
10 9 8 4 3 7 7 4 4 4 2 3 3 4 4 7 11 7 2 5 8 8 7 5 4 2 3 7 8 7 10 9 8 8 5 4 4 3 3 3 3 2 3 3 2 2 1 3 3 2 4 4 0 2 1 3 2 1 1 0 1 1 2 3 3 4 3 0 2 2 1 3 2 3 6 9 11 12 12 11 10 10 11 13 14 13 11 9
Wind_Direction
326 321 315 310 311 316 322 328 330 331 335 339 344 348 352 354 354 357 357 352 345 337 331 325 322 321 318 315 315 314 309 304 298 291 293 320 310 259 235 211 197 191 191 184 183 182 178 181 184 185 178 170 175 180 181 180 170 161 166 215 213 197 176 184 194 199 201 338 331 355 3 27 20 38 114 115 122 115 111 89 123 198 335 197 196 171 167 166
331 325 317 312 308 309 314 318 322 323 323 328 335 342 349 352 353 356 359 358 354 347 338 332 329 327 321 319 319 317 311 304 298 291 287 1 345 309 231 212 196 185 186 179 175 176 178 182 183 179 171 167 168 176 182 181 179 169 134 219 216 183 182 212 213 222 225 301 320 331 354 13 358 338 164 144 123 131 117 82 94 151 101 188 190 163 169 172
338 329 321 317 310 304 306 311 315 316 313 317 326 337 343 347 350 353 356 357 358 356 349 340 335 330 323 325 327 323 320 309 297 279 112 57 14 354 222 204 187 177 179 176 172 168 174 182 181 174 165 162 163 171 177 177 182 178 184 227 220 198 234 251 242 248 247 288 312 322 343 341 360 358 194 189 144 175 197 156 155 189 179 183 184 172 174 177
346 336 328 324 315 305 303 304 305 306 306 310 318 327 334 339 344 348 352 354 356 358 356 351 343 335 330 330 329 329 334 324 261 158 137 71 40 19 62 183 179 174 176 178 176 165 162 171 173 170 163 149 152 165 174 181 180 164 196 229 138 167 228 251 254 263 268 284 294 305 328 329 17 76 182 165 157 228 240 204 191 204 191 180 178 177 178 181
353 345 337 329 321 313 306 299 298 300 301 305 309 316 324 329 335 343 348 351 353 355 357 358 353 342 337 334 328 332 343 354 146 150 162 151 52 27 71 166 176 178 181 182 180 167 160 164 164 165 161 137 151 162 179 183 174 167 206 207 141 166 235 265 263 270 275 276 278 293 316 313 348 56 164 174 211 238 230 220 218 218 197 184 180 179 181 185
1 352 344 337 328 323 315 305 299 297 298 301 302 307 312 318 327 336 343 347 349 350 354 358 358 349 345 340 328 324 319 196 154 176 222 190 218 5 129 173 178 183 186 186 182 172 164 165 162 160 154 125 161 172 177 179 184 213 218 189 194 202 234 266 264 267 266 261 264 272 290 294 301 307 212 207 235 245 235 230 224 222 205 187 180 180 183 187
6 360 351 344 336 330 325 316 307 298 296 296 296 299 302 308 318 328 336 340 342 347 349 352 355 351 348 340 329 313 287 265 181 209 207 192 228 254 219 197 190 188 189 191 187 177 167 168 166 156 146 125 180 189 167 169 188 227 236 208 230 220 235 259 259 264 266 257 258 267 284 277 255 278 286 240 245 251 257 255 217 205 192 180 180 183 187 190
8 5 358 349 342 337 331 325 317 305 296 292 292 293 296 300 307 320 329 331 333 338 343 347 347 346 349 344 335 320 285 252 189 193 184 194 229 246 234 212 203 196 196 199 193 182 169 168 166 157 155 155 180 179 157 158 183 223 236 223 229 229 247 264 267 269 269 265 266 263 261 264 249 231 261 262 260 258 260 245 192 185 179 180 185 187 189 193
7 6 2 355 346 341 336 330 323 313 302 292 288 287 291 295 299 311 319 324 326 329 337 341 339 339 344 343 337 323 270 208 194 197 184 198 238 247 239 225 212 204 202 199 192 184 169 168 171 168 174 160 165 166 166 183 200 209 219 214 216 244 264 273 273 272 269 267 262 226 238 265 251 199 235 257 256 258 236 180 175 177 179 184 188 189 191 193
2 4 4 359 351 343 338 333 326 320 311 299 291 285 285 290 295 304 311 317 320 323 329 332 334 333 332 337 343 330 197 172 185 183 175 194 263 256 238 230 223 211 204 193 185 177 168 168 168 164 153 141 165 167 172 191 196 200 209 227 239 256 277 273 264 263 262 260 237 215 246 325 147 184 222 242 238 229 173 162 172 177 184 188 188 189 191 189
357 359 1 0 357 348 341 337 331 324 317 309 298 289 285 289 293 299 304 311 314 317 320 324 327 323 321 319 304 257 201 180 175 172 176 192 266 269 236 227 225 214 201 188 181 175 164 155 139 145 147 136 165 172 186 205 238 208 204 242 252 267 273 255 254 262 256 257 230 211 232 68 140 190 223 217 205 184 167 168 179 183 187 189 187 187 188 184
353 355 356 358 358 353 345 339 335 329 321 315 307 299 293 290 292 296 300 304 307 310 312 318 320 317 318 304 283 255 217 206 189 182 191 201 254 241 200 209 225 213 197 186 178 171 157 147 132 107 133 140 155 163 188 208 234 194 173 261 267 303 270 229 240 258 209 245 208 178 193 175 183 198 182 191 181 169 174 177 183 185 186 185 185 185 185 189
349 350 351 353 356 355 349 341 337 332 326 324 319 312 304 298 295 295 298 299 302 305 307 311 311 311 312 298 292 273 229 218 201 197 209 219 249 226 188 186 203 205 198 192 182 173 161 158 168 13 109 168 168 151 167 192 210 168 131 278 280 306 257 194 171 164 181 257 169 164 231 222 201 207 167 176 174 168 174 181 185 185 186 185 185 183 182 191
346 347 347 348 351 354 352 345 338 335 335 335 332 327 319 311 304 299 300 299 299 301 300 302 303 305 302 291 301 282 240 220 207 209 229 239 236 217 188 176 181 185 180 184 185 183 177 174 222 291 288 237 220 196 314 23 74 112 151 157 313 246 212 168 133 156 185 281 165 180 256 230 215 210 170 177 178 173 175 180 185 186 189 187 185 187 186 191
343 344 344 344 345 348 351 348 340 335 337 338 336 332 326 322 315 309 303 299 298 296 294 295 294 299 297 292 299 268 231 219 217 218 228 238 229 197 179 167 168 166 162 167 174 177 177 187 242 285 303 250 219 206 260 29 61 40 196 180 183 215 235 308 160 192 214 25 165 192 255 242 245 185 166 178 180 181 181 179 185 189 190 189 187 189 190 194
339 341 341 341 341 342 345 348 343 333 328 328 327 324 325 323 316 310 304 301 299 294 291 287 284 301 301 296 325 157 193 212 220 224 224 213 189 174 163 155 157 156 155 160 165 165 168 188 226 268 336 197 181 153 124 111 99 29 259 200 186 194 246 315 121 207 259 42 187 208 233 235 257 102 165 175 182 186 183 180 185 189 189 192 193 191 193 195
336 338 339 338 338 338 338 342 343 335 322 317 317 320 322 321 318 314 310 307 305 301 296 278 279 293 270 261 321 135 92 56 204 217 218 187 157 160 154 148 152 150 146 153 168 181 182 183 184 147 45 73 143 147 156 203 198 178 258 205 208 216 236 261 131 60 327 214 227 221 221 219 22 107 170 175 185 187 185 183 183 189 189 191 196 196 197 197
334 334 336 336 335 335 333 335 338 336 325 315 314 320 321 323 325 317 310 309 310 332 319 272 263 292 255 255 253 158 54 3 342 185 198 176 157 163 158 146 149 146 140 147 174 190 185 173 134 149 95 75 155 175 187 212 189 172 195 192 201 224 227 265 270 60 39 246 220 204 212 220 238 128 173 177 188 191 190 188 183 188 187 188 195 197 198 197
332 332 333 333 333 331 330 330 332 332 327 319 316 319 321 330 329 315 313 307 265 282 304 254 231 273 284 278 261 250 301 307 283 248 187 178 168 167 157 137 147 150 146 153 169 176 177 150 125 175 181 184 184 191 199 176 134 143 178 206 212 233 239 265 268 355 353 261 202 198 215 215 180 151 175 180 189 194 194 192 189 188 186 192 196 196 198 197
331 331 330 330 330 329 326 326 328 327 326 322 318 320 326 340 338 316 308 293 277 277 281 271 262 264 272 278 271 270 284 275 262 228 177 181 178 170 158 139 143 147 146 159 158 156 173 173 185 199 199 205 201 182 151 118 117 128 151 204 225 246 264 279 267 20 279 232 210 215 221 209 170 170 180 185 189 195 198 195 195 193 190 196 200 199 200 201
331 329 328 328 328 326 323 322 325 324 323 321 316 321 329 343 353 318 308 297 289 287 281 278 271 262 262 265 260 261 278 286 251 191 174 181 178 175 175 159 139 144 162 187 136 124 167 202 218 213 201 194 168 146 133 122 127 137 178 225 224 222 262 299 256 340 273 216 357 204 188 96 72 171 178 190 193 197 204 203 199 199 197 202 208 207 205 207
330 328 328 326 326 325 320 319 323 321 320 317 311 320 319 316 328 315 307 294 294 297 286 275 265 258 257 251 248 253 265 279 236 198 178 175 177 180 176 162 159 162 126 77 152 113 196 227 233 204 153 105 101 132 143 131 140 126 163 225 200 207 266 281 236 333 353 203 61 130 148 69 41 88 153 215 202 184 200 207 205 203 204 211 216 212 208 211
328 327 326 325 324 323 318 314 319 320 318 314 306 299 286 314 323 316 298 271 293 300 286 268 256 253 252 247 244 241 235 230 226 211 184 175 179 182 168 156 160 144 136 182 183 173 196 248 248 161 146 129 104 122 135 124 171 169 167 213 200 205 265 166 148 352 5 23 62 123 117 66 58 109 135 332 17 94 175 201 208 211 210 214 219 215 209 210
326 325 323 323 322 321 317 311 314 316 313 316 304 255 292 318 324 323 299 253 289 300 286 269 254 256 253 243 231 216 210 214 215 203 188 180 172 172 172 154 144 155 177 182 178 195 216 258 101 124 148 157 126 132 164 167 197 203 201 220 225 221 242 247 13 329 306 59 56 104 126 88 76 144 158 97 48 151 173 194 206 218 221 217 219 219 217 216
326 323 321 321 319 320 318 311 309 303 300 312 288 245 298 320 322 325 309 270 286 279 283 270 245 260 234 200 195 196 199 211 213 194 187 187 176 162 157 154 169 195 175 151 152 212 241 191 146 134 139 165 144 163 196 186 188 216 212 217 216 201 223 254 333 321 200 109 48 351 185 117 66 143 162 111 210 194 184 199 209 217 222 222 221 220 220 218
325 322 320 319 317 318 316 309 302 289 300 308 256 247 307 322 324 324 328 354 295 268 292 236 235 217 173 185 180 171 174 210 215 197 185 192 187 171 148 144 183 206 155 146 157 234 233 141 156 153 143 164 173 213 210 185 177 209 208 203 192 172 184 216 250 224 178 125 55 337 233 147 96 109 117 307 223 196 193 213 217 218 221 222 223 222 221 217
326 321 318 316 315 315 312 305 291 288 296 286 237 256 299 314 322 320 333 356 282 274 113 157 216 143 166 193 168 155 139 178 189 195 190 190 187 183 180 162 163 171 149 149 188 217 151 132 117 118 123 154 187 226 200 180 178 185 159 158 158 166 182 181 158 126 85 223 167 355 353 163 139 122 146 248 201 191 209 220 219 220 222 224 225 223 222 220
327 321 316 313 312 310 307 301 292 289 281 247 237 248 283 305 306 265 23 1 265 53 118 172 124 139 135 169 172 171 75 149 160 195 193 187 181 181 193 194 184 168 151 176 200 181 137 176 177 148 132 177 203 229 180 174 179 13 114 119 134 141 142 143 125 113 73 235 186 15 356 192 172 86 345 196 179 186 206 225 230 228 226 228 229 225 222 220
327 321 314 309 307 304 300 296 293 289 255 223 219 232 273 286 235 141 82 327 241 56 75 161 138 149 117 142 188 213 265 136 139 179 182 184 184 182 193 192 168 129 125 215 219 182 95 219 191 161 176 207 207 212 171 176 161 128 130 102 96 85 76 74 85 111 104 230 188 13 341 229 194 288 352 26 46 306 299 260 253 252 245 239 237 234 230 227
328 322 313 307 304 299 295 293 295 285 236 211 207 224 265 234 160 90 130 255 276 34 82 153 146 171 131 126 209 240 247 328 82 139 161 177 182 174 131 154 133 124 135 334 255 244 343 267 195 185 215 153 117 88 82 57 101 140 135 102 96 69 51 64 39 69 165 207 158 3 331 290 213 209 281 244 18 336 318 304 289 292 285 266 253 247 241 237
328 322 315 308 303 297 292 290 298 280 217 200 202 211 205 153 104 118 195 253 301 302 44 92 48 88 141 146 219 227 223 286 109 137 152 163 169 145 113 138 118 119 158 295 250 301 335 229 219 234 199 126 111 90 62 46 104 136 118 127 127 70 35 95 36 334 206 199 75 355 315 275 226 191 217 263 305 326 299 296 302 307 306 301 294 273 248 241
328 322 316 310 303 294 288 285 278 240 199 185 199 203 179 157 191 199 227 323 333 217 41 42 278 4 143 207 216 193 182 187 164 152 149 153 170 170 164 172 158 148 203 223 225 337 263 235 294 317 190 167 136 102 91 80 75 146 126 146 156 132 164 203 213 216 230 226 52 340 300 242 241 280 299 294 316 328 311 302 304 306 308 312 317 301 248 239
330 324 320 313 303 292 283 273 251 221 200 188 190 179 136 178 216 209 230 276 13 22 49 193 300 311 181 199 220 185 159 179 187 179 146 138 180 182 156 81 154 157 169 193 198 199 222 257 311 182 186 197 180 150 150 177 188 180 160 164 174 148 154 192 173 222 253 233 73 324 283 216 225 303 291 299 319 328 326 321 317 321 332 350 15 57 118 165
333 328 323 315 303 288 269 250 229 211 204 194 175 143 143 200 220 203 217 238 289 333 336 319 325 314 179 207 269 168 166 204 166 160 154 129 177 195 183 166 183 118 102 146 192 192 203 222 193 188 155 173 192 183 149 145 153 176 163 153 179 169 179 212 197 198 214 146 93 181 211 204 179 114 308 303 317 330 337 342 353 30 66 74 79 85 89 93
336 331 324 312 293 287 266 239 217 202 199 186 156 138 185 198 224 195 203 235 269 311 324 356 8 322 207 260 306 198 181 240 102 144 165 155 177 192 182 193 197 157 135 170 200 140 217 250 246 294 331 162 195 177 110 123 134 120 88 145 193 192 151 131 117 143 186 132 125 189 228 265 264 256 246 248 263 350 11 24 54 85 100 97 94 94 92 94
338 332 318 283 272 292 277 240 214 199 192 178 153 203 200 205 216 182 174 171 134 7 309 318 67 246 273 268 290 268 154 98 62 165 175 174 198 183 184 204 189 182 174 168 186 155 156 242 296 340 80 56 261 165 109 225 164 130 177 177 163 62 111 118 123 57 15 203 166 177 238 241 265 233 175 168 166 120 82 76 83 94 108 108 108 110 110 105
340 331 305 284 302 297 269 241 216 195 185 177 186 206 205 228 196 180 201 126 124 68 28 305 319 227 257 271 240 252 162 120 90 205 171 168 215 182 202 230 186 194 200 172 190 224 191 183 356 20 128 46 339 128 84 25 72 145 186 160 129 75 80 116 157 83 98 208 171 148 241 191 204 204 148 179 197 122 91 77 91 98 107 110 114 120 120 116
340 329 309 327 329 312 268 234 211 190 176 173 212 211 205 210 185 175 159 110 109 50 86 182 277 309 318 265 264 291 236 190 150 117 130 117 254 140 134 240 186 203 233 211 189 218 203 189 24 296 171 28 347 139 111 47 29 60 141 125 130 196 165 152 165 151 187 207 175 161 258 237 211 212 183 203 209 162 135 115 120 132 122 112 117 124 125 125
340 331 346 345 338 328 278 210 190 179 169 172 212 199 205 211 212 207 184 102 102 98 80 220 243 340 316 258 278 307 266 199 161 138 131 166 252 68 35 337 344 357 295 231 189 122 175 223 200 334 317 337 349 238 174 109 52 60 111 106 21 283 169 179 155 167 199 196 178 166 194 236 216 208 197 194 195 179 164 158 158 161 159 154 141 136 134 135
343 343 16 349 341 343 148 167 168 168 166 200 201 171 206 210 229 224 210 199 181 176 253 200 171 274 272 298 272 286 335 183 149 150 169 169 178 90 35 7 344 348 350 258 185 116 69 222 191 62 316 217 163 7 245 177 106 115 150 148 124 83 93 170 103 34 225 179 172 174 191 224 202 181 204 185 185 190 175 162 165 176 189 192 174 159 153 145
2 94 359 345 343 72 112 139 149 165 161 111 181 176 257 201 204 220 200 194 202 219 258 172 172 239 232 312 262 235 353 325 125 141 194 177 191 174 76 39 340 325 20 79 167 159 102 172 175 99 69 178 28 3 305 265 236 167 170 171 149 128 147 165 154 155 327 167 176 176 194 193 90 39 308 303 264 211 175 160 163 180 193 193 180 164 150 138
36 78 349 346 21 108 81 136 133 4 149 120 218 201 255 226 209 28 95 132 196 52 29 176 208 231 200 253 264 219 350 295 150 220 193 94 205 208 57 28 4 348 23 112 224 200 147 110 111 79 61 271 314 337 343 296 184 103 73 85 134 131 154 177 188 177 147 130 139 135 213 158 86 28 309 280 283 236 167 165 164 167 176 168 146 133 130 130
47 50 13 10 130 68 23 121 312 10 192 313 300 206 344 54 45 3 60 34 16 71 29 183 187 228 206 256 254 200 215 242 249 260 103 72 132 220 325 314 187 83 21 344 335 263 165 81 84 83 7 324 281 250 183 77 120 89 52 46 82 104 88 130 181 154 153 164 155 164 210 161 70 16 342 284 263 159 147 153 150 146 147 146 138 131 130 131
40 42 33 32 35 303 18 91 325 340 298 323 14 37 21 58 36 7 84 39 17 66 13 119 96 11 343 30 98 153 242 220 46 14 74 82 130 17 352 347 171 164 148 240 212 198 30 39 94 104 78 2 272 212 201 170 71 60 64 45 51 98 99 104 94 123 182 182 175 202 202 138 51 25 36 66 101 115 106 95 117 129 137 147 145 138 135 134
22 33 33 36 46 56 63 58 311 274 315 340 28 25 10 51 43 51 87 64 36 58 59 31 16 357 28 53 81 58 25 37 23 4 57 57 15 324 360 11 58 152 148 143 155 158 123 115 150 147 162 187 195 195 203 163 107 55 85 60 51 82 104 133 130 175 207 173 165 213 182 107 71 45 50 59 85 106 101 96 108 117 139 158 154 145 140 137
31 33 358 19 42 52 52 41 26 350 304 355 49 19 0 2 31 51 70 59 39 39 42 27 358 344 48 45 102 64 19 9 40 56 53 11 345 322 341 356 29 53 101 122 127 137 108 65 31 110 160 187 168 147 265 282 136 130 99 70 59 50 32 71 113 191 183 150 180 219 127 120 128 52 37 38 46 78 101 104 106 108 139 165 164 155 147 140
54 44 339 340 23 29 29 30 23 6 345 24 51 2 358 7 8 21 37 44 42 39 52 45 25 25 20 16 116 86 8 7 38 48 23 342 284 291 323 335 27 26 51 113 100 102 100 61 8 34 47 21 66 115 126 335 85 115 91 62 48 25 40 82 107 169 139 161 222 190 160 160 143 52 16 17 20 34 61 70 82 99 134 164 167 159 148 137
57 66 32 38 36 345 1 8 354 356 23 35 48 5 7 30 40 24 3 11 37 28 26 44 29 24 358 261 139 78 2 24 38 21 351 354 328 310 338 6 23 18 29 80 43 83 113 74 313 51 51 33 31 86 119 85 53 68 66 48 26 357 348 91 126 171 157 222 304 156 162 158 101 29 350 351 343 333 13 53 86 113 142 163 163 154 141 130
60 76 48 58 79 356 344 344 332 357 27 29 37 20 15 32 41 27 349 343 28 15 16 62 22 10 17 27 101 81 21 47 59 28 351 360 1 355 6 5 354 2 16 58 36 71 112 91 195 136 65 34 14 356 125 117 118 90 52 26 15 16 16 89 89 57 98 3 345 113 130 84 36 338 330 338 324 301 73 76 85 100 125 143 146 144 140 135
51 57 29 55 64 18 7 8 349 5 23 21 29 7 6 30 30 20 20 27 27 360 8 43 6 354 31 48 63 82 40 19 61 41 3 354 15 26 31 54 332 345 1 45 24 7 80 132 177 132 85 33 1 353 33 102 126 122 77 39 61 115 103 97 95 79 97 88 43 99 121 85 39 359 1 15 31 64 67 59 59 69 100 126 130 126 129 133
46 46 31 55 48 360 360 8 6 35 24 14 15 346 358 21 6 353 49 52 55 37 351 340 333 328 43 50 56 66 15 318 259 284 300 315 353 356 350 6 331 333 353 26 11 348 56 121 165 130 125 146 345 8 55 79 83 98 109 71 34 187 148 81 78 74 61 135 113 131 156 103 66 53 54 52 54 57 50 40 43 56 83 111 118 115 119 127
39 44 40 59 62 9 2 351 3 42 46 356 345 344 359 1 350 351 71 46 35 37 12 340 322 330 46 45 31 343 315 297 276 282 282 265 278 272 266 297 321 328 340 11 35 3 49 138 156 156 144 150 16 359 94 110 111 151 177 42 345 23 99 93 71 48 18 77 146 158 140 103 109 107 80 63 54 52 45 37 39 51 70 90 98 99 101 105